C/2008 FK75 ( Lemmon-Siding Spring )

Japanese version
Home page
Updated on June 15, 2014

---------------------------------------------------------------------

* Profile

Discovery Date May 31 and July 1, 2008
Magnitude 19.4 mag, 18.9 mag
Discoverer Mt. Lemmon Survey, Siding Spring Survey

* Pictures

* Orbital Elements

Epoch 2010 Oct. 11.0 TT = JDT 2455480.5
T 2010 Sept. 29.25352 TT                                MPC
q   4.5108867            (2000.0)            P               Q
z  -0.0005738      Peri.   80.42003     +0.16377319     +0.82386184
 +/-0.0000001      Node   218.26853     -0.78064584     +0.44452149
e   1.0025885      Incl.   61.17608     +0.60313383     +0.35164231
From 3311 observations 2008 Mar. 31-2013 Nov. 6, mean residual 0".6.

* Finding Charts

* Magnitudes Graph

        m1 = 5.5 + 5 log d + 10.0 log r

---------------------------------------------------------------------

The orbital elements are published on M.P.E.C. 2014-H26.
The charts are made with StellaNavigator Ver.8 (AstroArts).
The magnitudes graphs are made with Comet for Windows.

---------------------------------------------------------------------

Copyright(C) Seiichi Yoshida (comet@aerith.net). All rights reserved.